Home > Weather > Gran > Past weeks

Flag for Norway Weather for the Past 2 Weeks in Gran, Norway

Now
39 °F

Passing clouds.


Feels Like: 30 °F
Forecast: 28 / 30 °F
Wind: 18 mph from South

Location: Oslo Gardermoen Airport

Current Time: Feb 7, 2016 at 7:23:37 PM

Latest Report: Feb 7, 2016 at 6:50 PM


Visibility: N/A

Pressure: 29.09 "Hg

Humidity: 87%

Dew point: 36 °F

Location of GranLocation

Historic Weather in Gran — Graph

°F

Gran Temperature Yesterday

Maximum temperature yesterday: 39 °F (at 10:50 AM)
Minimum temperature yesterday: 30 °F (at 12:20 AM)
Average temperature yesterday: 35 °F

High & Low Weather Summary for the Past Weeks

 TemperatureHumidityPressure
High41 °F (Jan 29, 4:50 PM)100% (Jan 25, 10:20 AM)30.15 "Hg (Jan 25, 10:20 AM)
Low19 °F (Feb 1, 4:20 AM)38% (Feb 4, 1:20 PM)28.77 "Hg (Feb 2, 4:50 PM)
Average31 °F81%29.39 "Hg
* Reported Jan 23 5:20 PM — Feb 7 5:50 PM, Gran, Weather by CustomWeather, © 2016

Note: Actual official high and low records may vary slightly from our data, if they occured in-between our weather recording intervals... More about our weather records

Advertising

Gran Weather History for the Previous 24 Hours

 ConditionsComfort  
Time TempWeatherWind HumidityBarometerVisibility
5:50 PM
Sun, Feb 7
37 °FLight rain. Low clouds.18 mph93%29.09 "HgN/A
5:20 PM39 °FLight rain. Passing clouds.18 mph93%29.09 "HgN/A
4:50 PM39 °FLight rain. Mostly cloudy.17 mph93%29.09 "HgN/A
4:20 PM39 °FRain. Low clouds.14 mph93%29.09 "Hg4 mi
3:50 PM39 °FRain. Fog.10 mph93%29.09 "Hg3 mi
3:20 PM39 °FRain. Partly sunny.13 mph93%29.12 "Hg4 mi
2:50 PM39 °FLight rain. Fog.15 mph93%29.12 "Hg3 mi
2:20 PM39 °FLight rain. Fog.13 mph93%29.15 "Hg3 mi
1:50 PM39 °FLight rain. Fog.13 mph93%29.15 "Hg2 mi
1:20 PM39 °FLight rain. Low clouds.12 mph87%29.15 "Hg4 mi
12:50 PM39 °FLight rain. Fog.12 mph87%29.18 "Hg3 mi
12:20 PM39 °FLight rain. Fog.13 mph93%29.18 "Hg3 mi
11:50 AM39 °FLight rain. Fog.10 mph87%29.21 "Hg3 mi
11:20 AM37 °FFog.10 mph93%29.21 "Hg3 mi
10:50 AM37 °FFog.12 mph93%29.24 "Hg3 mi
10:20 AM39 °FFog.12 mph87%29.24 "Hg3 mi
9:50 AM39 °FFog.12 mph93%29.24 "Hg3 mi
9:20 AM39 °FFog.14 mph93%29.24 "Hg3 mi
8:50 AM39 °FFog.15 mph93%29.24 "Hg3 mi
8:20 AM39 °FPartly sunny.17 mph93%29.24 "Hg4 mi
7:50 AM39 °FPassing clouds.18 mph93%29.24 "Hg4 mi
7:20 AM39 °FPassing clouds.17 mph93%29.24 "Hg4 mi
6:50 AM39 °FPassing clouds.20 mph93%29.24 "Hg4 mi
6:20 AM39 °FDrizzle. Fog.18 mph93%29.24 "Hg3 mi
5:50 AM39 °FFog.21 mph93%29.24 "Hg2 mi
5:20 AM39 °FPassing clouds.18 mph93%29.24 "Hg5 mi
4:50 AM39 °FDrizzle. Low clouds.17 mph93%29.24 "Hg6 mi
4:20 AM39 °FDrizzle. Low clouds.21 mph93%29.27 "Hg4 mi
3:50 AM37 °FPassing clouds.20 mph100%29.27 "Hg4 mi
3:20 AM37 °FLight rain. Fog.15 mph93%29.27 "Hg3 mi
2:50 AM34 °FLight rain. Fog.2 mph93%29.27 "Hg2 mi
2:20 AM34 °FLight rain. Fog.No wind93%29.30 "Hg2 mi
1:50 AM34 °FRain. Passing clouds.No wind100%29.30 "Hg4 mi
1:20 AM34 °FRain. Passing clouds.No wind100%29.33 "Hg6 mi
12:50 AM34 °FLight rain. Partly cloudy.3 mph100%29.36 "Hg3 mi
11:50 PM
Sat, Feb 6
36 °FLight rain. Passing clouds.6 mph93%29.39 "Hg6 mi
11:20 PM36 °FLight rain. Passing clouds.7 mph93%29.39 "Hg6 mi
10:50 PM36 °FLight rain. Passing clouds.6 mph93%29.42 "Hg6 mi
9:50 PM36 °FLow clouds.8 mph93%29.45 "Hg5 mi
9:20 PM36 °FLow clouds.6 mph93%29.45 "Hg4 mi
8:50 PM36 °FPartly cloudy.7 mph93%29.45 "Hg5 mi
8:20 PM36 °FPartly cloudy.6 mph93%29.45 "HgN/A
7:50 PM36 °FPartly cloudy.7 mph93%29.45 "HgN/A
7:20 PM36 °FPassing clouds.12 mph93%29.45 "HgN/A
Weather by CustomWeather, © 2016

See weather overviewHow to use our weather pages